DW3588 Weather Reports


Display with metric or nautical units.
time (UTC)temp
F
wind
direction
speed
MPH
gust
MPH
rain 1hr
in
rain 24hr
in
rain mn
in
humidity
%
barometer
mb
20260505003509 64 279 5.0 9.0 0.00 0.00 0.00 57 1013.8
20260505003002 65 257 5.0 9.0 0.00 0.00 0.00 57 1013.8
20260505002500 65 290 5.0 9.0 0.00 0.00 0.00 57 1013.8
20260505001959 65 276 4.0 8.0 0.00 0.00 0.00 57 1013.8
20260505001455 65 244 3.0 7.0 0.00 0.00 0.00 56 1013.9
20260505000954 65 217 3.0 6.0 0.00 0.00 0.00 56 1013.9
20260505000452 65 225 3.0 7.0 0.00 0.00 0.00 55 1013.9
20260504235953 65 254 3.0 7.0 0.00 0.00 0.00 55 1013.9
20260504235452 65 259 3.0 8.0 0.00 0.00 0.00 55 1013.9
20260504234950 65 254 2.0 8.0 0.00 0.00 0.00 55 1013.9
20260504234447 65 225 2.0 7.0 0.00 0.00 0.00 55 1013.9
20260504233946 65 225 3.0 7.0 0.00 0.00 0.00 55 1013.9
20260504233706 65 238 3.0 7.0 0.00 0.00 0.00 55 1013.9
20260504232944 65 228 3.0 7.0 0.00 0.00 0.00 55 1013.9
20260504232441 65 222 3.0 6.0 0.00 0.00 0.00 56 1013.8
20260504231941 65 205 3.0 7.0 0.00 0.00 0.00 56 1013.9
20260504231440 65 213 3.0 7.0 0.00 0.00 0.00 57 1013.8
20260504230924 65 201 2.0 6.0 0.00 0.00 0.00 57 1013.9
20260504230421 65 150 1.0 3.0 0.00 0.00 0.00 58 1013.8
20260504225921 65 146 1.0 5.0 0.00 0.00 0.00 58 1013.8
20260504225420 65 146 1.0 5.0 0.00 0.00 0.00 59 1013.8
20260504224917 65 160 2.0 5.0 0.00 0.00 0.00 59 1013.8
20260504224647 65 5 3.0 6.0 0.00 0.00 0.00 58 1013.8
20260504223917 65 46 3.0 6.0 0.00 0.00 0.00 58 1013.8
20260504223418 65 13 3.0 10.0 0.00 0.00 0.00 58 1013.8
20260504223141 65 13 4.0 12.0 0.00 0.00 0.00 58 1013.9
20260504222417 65 344 6.0 12.0 0.00 0.00 0.00 58 1013.9
20260504221913 65 329 6.0 12.0 0.00 0.00 0.00 57 1013.9
20260504221413 66 344 6.0 12.0 0.00 0.00 0.00 57 1013.9
20260504220911 66 335 7.0 12.0 0.00 0.00 0.00 56 1013.9
20260504220410 66 343 6.0 14.0 0.00 0.00 0.00 56 1014.0
20260504215908 67 333 5.0 14.0 0.00 0.00 0.00 55 1014.0
20260504215408 67 300 4.0 10.0 0.00 0.00 0.00 54 1014.0
20260504214909 67 310 2.0 6.0 0.00 0.00 0.00 54 1014.1
20260504214409 67 234 2.0 8.0 0.00 0.00 0.00 54 1014.1
20260504214134 67 38 3.0 8.0 0.00 0.00 0.00 53 1014.1
20260504213407 67 308 3.0 6.0 0.00 0.00 0.00 53 1014.1
20260504212910 67 82 3.0 9.0 0.00 0.00 0.00 54 1014.0
20260504212407 67 98 4.0 9.0 0.00 0.00 0.00 52 1014.1
20260504211908 68 102 4.0 9.0 0.00 0.00 0.00 53 1014.1
20260504211406 68 61 3.0 9.0 0.00 0.00 0.00 52 1014.1
20260504210906 68 67 3.0 8.0 0.00 0.00 0.00 52 1014.2
20260504210405 69 82 5.0 10.0 0.00 0.00 0.00 51 1014.2
20260504205906 69 96 5.0 10.0 0.00 0.00 0.00 51 1014.2
20260504205626 69 338 4.0 10.0 0.00 0.00 0.00 53 1014.1
20260504204905 67 346 4.0 11.0 0.00 0.00 0.00 55 1014.2
20260504204404 66 350 5.0 11.0 0.00 0.00 0.00 55 1014.3
20260504203903 67 34 5.0 11.0 0.00 0.00 0.00 54 1014.3
20260504203403 67 351 4.0 10.0 0.00 0.00 0.00 54 1014.3
20260504202901 66 340 4.0 10.0 0.00 0.00 0.00 55 1014.3
20260504202359 66 333 5.0 11.0 0.00 0.00 0.00 56 1014.2
20260504201858 66 344 5.0 11.0 0.00 0.00 0.00 56 1014.2
20260504201353 66 337 5.0 10.0 0.00 0.00 0.00 56 1014.2
20260504200853 66 346 6.0 10.0 0.00 0.00 0.00 55 1014.2
20260504200606 66 331 5.0 11.0 0.00 0.00 0.00 55 1014.2
20260504200109 66 349 6.0 11.0 0.00 0.00 0.00 54 1014.3
20260504195343 66 344 7.0 13.0 0.00 0.00 0.00 56 1014.3
20260504194839 66 311 6.0 13.0 0.00 0.00 0.00 55 1014.3
20260504194339 66 311 5.0 13.0 0.00 0.00 0.00 56 1014.3
20260504193837 66 347 5.0 13.0 0.00 0.00 0.00 56 1014.3
20260504193818 66 312 5.0 13.0 0.00 0.00 0.00 56 1014.4
20260504192835 66 321 6.0 13.0 0.00 0.00 0.00 57 1014.3
20260504192831 66 315 6.0 13.0 0.00 0.00 0.00 57 1014.4
20260504191830 66 350 6.0 12.0 0.00 0.00 0.00 57 1014.4
20260504191331 67 338 6.0 12.0 0.00 0.00 0.00 56 1014.4
20260504191053 67 261 7.0 13.0 0.00 0.00 0.00 57 1014.4
20260504190331 66 346 8.0 15.0 0.00 0.00 0.00 57 1014.4
20260504185831 66 336 8.0 15.0 0.00 0.00 0.00 57 1014.4
20260504185332 67 338 6.0 12.0 0.00 0.00 0.00 56 1014.3
20260504184825 66 339 5.0 11.0 0.00 0.00 0.00 57 1014.4
20260504184322 66 309 5.0 12.0 0.00 0.00 0.00 57 1014.4
20260504183822 66 326 6.0 12.0 0.00 0.00 0.00 58 1014.3
20260504183322 66 26 6.0 14.0 0.00 0.00 0.00 58 1014.4
20260504183044 67 27 6.0 14.0 0.00 0.00 0.00 56 1014.4
20260504182321 67 345 4.0 13.0 0.00 0.00 0.00 55 1014.4
20260504181821 67 75 3.0 10.0 0.00 0.00 0.00 55 1014.4
20260504181321 67 168 3.0 7.0 0.00 0.00 0.00 50 1014.4
20260504180818 67 132 2.0 7.0 0.00 0.00 0.00 50 1014.4
20260504180319 68 119 2.0 4.0 0.00 0.00 0.00 49 1014.3
20260504180035 68 130 2.0 4.0 0.00 0.00 0.00 49 1014.3
20260504175313 68 5 2.0 4.0 0.00 0.00 0.00 48 1014.2
20260504174813 68 67 3.0 9.0 0.00 0.00 0.00 48 1014.3
20260504174314 68 61 3.0 9.0 0.00 0.00 0.00 48 1014.2
20260504173809 68 71 2.0 8.0 0.00 0.00 0.00 49 1014.3
20260504173309 67 28 3.0 8.0 0.00 0.00 0.00 50 1014.2
20260504172808 66 49 3.0 8.0 0.00 0.00 0.00 51 1014.2
20260504172305 66 37 3.0 8.0 0.00 0.00 0.00 50 1014.4
20260504171805 66 65 3.0 8.0 0.00 0.00 0.00 51 1014.3
20260504171301 66 15 3.0 8.0 0.00 0.00 0.00 52 1014.3
20260504171254 67 13 3.0 8.0 0.00 0.00 0.00 52 1014.1
20260504170301 66 44 4.0 8.0 0.00 0.00 0.00 51 1014.1
20260504160250 62 252 5.0 11.0 0.00 0.00 0.00 61 1013.8
20260504150742 56 222 3.0 8.0 0.00 0.00 0.00 75 1014.1
20260504150239 55 221 2.0 5.0 0.00 0.00 0.00 76 1014.1
20260504141221 54 229 1.0 3.0 0.00 0.00 0.00 77 1014.1
20260504140720 54 229 0.0 3.0 0.00 0.00 0.00 76 1014.0
20260504140213 54 229 0.0 1.0 0.00 0.00 0.00 76 1014.1
20260504130701 55 241 1.0 5.0 0.00 0.00 0.00 74 1013.6
20260504130159 55 242 2.0 5.0 0.00 0.00 0.00 74 1013.5
20260504120145 56 215 5.0 9.0 0.00 0.00 0.00 73 1013.4
20260504110628 56 235 4.0 9.0 0.00 0.00 0.00 74 1013.6
20260504110126 56 240 4.0 9.0 0.00 0.00 0.00 74 1013.6
20260504100120 56 243 2.0 5.0 0.00 0.00 0.00 72 1013.7
20260504090106 56 240 4.0 9.0 0.00 0.00 0.00 72 1013.8
20260504081800 56 265 2.0 7.0 0.00 0.00 0.00 73 1014.0
20260504081040 56 268 2.0 7.0 0.00 0.00 0.00 73 1014.0
20260504080540 56 272 2.0 6.0 0.00 0.00 0.00 73 1014.0
20260504050505 57 239 3.0 9.0 0.00 0.00 0.00 64 1013.0
20260504050007 57 260 4.0 9.0 0.00 0.00 0.00 65 1013.0
20260504045500 57 273 4.0 9.0 0.00 0.00 0.00 65 1012.9
20260504045001 57 273 4.0 9.0 0.00 0.00 0.00 65 1012.8
20260504044501 57 261 4.0 8.0 0.00 0.00 0.00 66 1012.8
20260504043957 57 247 5.0 10.0 0.00 0.00 0.00 66 1012.8
20260504043457 57 267 5.0 10.0 0.00 0.00 0.00 67 1012.7
20260504042958 57 275 6.0 13.0 0.00 0.00 0.00 67 1012.7
20260504042458 57 252 5.0 16.0 0.00 0.00 0.00 68 1012.6
20260504041958 58 272 6.0 16.0 0.00 0.00 0.00 67 1012.6
20260504041715 58 230 8.0 16.0 0.00 0.00 0.00 67 1012.5
20260504040958 58 231 8.0 16.0 0.00 0.00 0.00 67 1012.4
20260504040458 58 231 8.0 17.0 0.00 0.00 0.00 67 1012.3
20260504035957 58 276 9.0 17.0 0.00 0.00 0.00 66 1012.3
20260504035455 58 233 9.0 15.0 0.00 0.00 0.00 66 1012.2
20260504034956 58 259 9.0 14.0 0.00 0.00 0.00 66 1012.2
20260504034454 58 271 7.0 14.0 0.00 0.00 0.00 67 1012.2
20260504033952 58 221 7.0 16.0 0.00 0.00 0.00 66 1012.1
20260504033451 59 280 7.0 16.0 0.00 0.00 0.00 66 1012.2
20260504032948 59 264 8.0 15.0 0.00 0.00 0.00 66 1012.2
20260504032448 59 227 7.0 14.0 0.00 0.00 0.00 66 1012.1
20260504031948 59 272 6.0 13.0 0.00 0.00 0.00 66 1012.1
20260504031446 59 268 7.0 15.0 0.00 0.00 0.00 65 1012.1
20260504030946 60 267 8.0 15.0 0.00 0.00 0.00 65 1012.0
20260504030923 60 294 9.0 17.0 0.00 0.00 0.00 64 1012.0
20260504025946 60 296 9.0 17.0 0.00 0.00 0.00 63 1011.9
20260504025446 60 275 9.0 15.0 0.00 0.00 0.00 63 1011.9
20260504025424 60 260 9.0 16.0 0.00 0.00 0.00 63 1011.7
20260504024447 61 254 9.0 16.0 0.00 0.00 0.00 62 1011.7
20260504023946 61 269 10.0 18.0 0.00 0.00 0.00 62 1011.5
20260504023428 61 262 9.0 18.0 0.00 0.00 0.00 62 1011.5
20260504022927 61 243 8.0 15.0 0.00 0.00 0.00 61 1011.4
20260504022427 62 243 8.0 17.0 0.00 0.00 0.00 61 1011.5
20260504021928 62 224 9.0 17.0 0.00 0.00 0.00 60 1011.4
20260504021428 62 297 9.0 15.0 0.00 0.00 0.00 60 1011.4
20260504020922 63 283 9.0 15.0 0.00 0.00 0.00 59 1011.4
20260504020422 63 309 9.0 16.0 0.00 0.00 0.00 59 1011.3
20260504015922 63 249 9.0 16.0 0.00 0.00 0.00 58 1011.3
20260504015645 64 257 9.0 16.0 0.00 0.00 0.00 58 1011.3
20260504015145 65 242 8.0 16.0 0.00 0.00 0.00 57 1011.2
20260504014420 65 257 7.0 13.0 0.00 0.00 0.00 57 1011.3
20260504014138 65 232 7.0 16.0 0.00 0.00 0.00 56 1011.3
20260504013416 65 236 8.0 16.0 0.00 0.00 0.00 55 1011.3
20260504012914 66 222 9.0 17.0 0.00 0.00 0.00 54 1011.4
20260504012411 66 267 7.0 17.0 0.00 0.00 0.00 54 1011.4
20260504011909 66 252 7.0 12.0 0.00 0.00 0.00 54 1011.3
20260504011407 66 257 7.0 14.0 0.00 0.00 0.00 54 1011.3
20260504011127 67 244 8.0 14.0 0.00 0.00 0.00 55 1011.4
20260504010405 67 284 8.0 16.0 0.00 0.00 0.00 55 1011.4
20260504005905 67 228 7.0 16.0 0.00 0.00 0.00 55 1011.3
20260504005625 66 244 7.0 16.0 0.00 0.00 0.00 55 1011.3
20260504004904 66 228 8.0 16.0 0.00 0.00 0.00 55 1011.3
20260504004402 66 223 8.0 16.0 0.00 0.00 0.00 55 1011.3